Hourly Data Report for October 06, 2017

All times are specified in Local Standard Time (LST). Add 1 hour to adjust for Daylight Saving Time where and when it is observed.

RESOLUTE BAY A
NUNAVUT

74°43'01.000" N
94°58'10.000" W
67.70 m
2403498
71924
YRB

Download Data

Hourly Data (October 2017)
Hourly Data Report for October 6, 2017
Temp Definition
°C
Dew Point Temp Definition
°C
Rel Hum Definition
%
Wind Dir Definition
10's deg

Wind Spd Definition
km/h
Visibility Definition
km
Stn Press Definition
kPa
Hmdx Definition


Wind Chill Definition


Weather Definition


TIME
00:00 Legend Double Dagger -5.0 -7.7 82 10 28 24.1 100.13   -13 Cloudy
01:00 Legend Double Dagger -5.4 -7.9 83 11 26 24.1 100.15   -13 LegendNANA
02:00 Legend Double Dagger -5.3 -7.7 84 8 36 24.1 100.14   -14 LegendNANA
03:00 Legend Double Dagger -5.0 -7.2 84 8 34 24.1 100.14   -13 Cloudy
04:00 Legend Double Dagger -4.8 -7.4 82 8 35 24.1 100.11   -13 LegendNANA
05:00 Legend Double Dagger -4.0 -6.8 81 9 37 24.1 100.11   -12 LegendNANA
06:00 Legend Double Dagger -3.9 -6.8 81 10 33 24.1 100.12   -12 Mainly Clear
07:00 Legend Double Dagger -3.5 -6.6 80 8 27 24.1 100.12   -11 LegendNANA
08:00 Legend Double Dagger -3.8 -6.3 82 8 25 24.1 100.13   -11 LegendNANA
09:00 Legend Double Dagger -3.9 -6.4 83 7 24 24.1 100.12   -11 Mostly Cloudy
10:00 Legend Double Dagger -3.4 -6.0 82 8 21 24.1 100.11   -10 LegendNANA
11:00 Legend Double Dagger -3.8 -6.4 82 6 23 24.1 100.11   -11 LegendNANA
12:00 Legend Double Dagger -3.6 -6.2 82 6 23 24.1 100.09   -10 Cloudy
13:00 Legend Double Dagger -3.4 -6.3 80 6 17 24.1 100.10   -9 LegendNANA
14:00 Legend Double Dagger -3.5 -6.4 80 8 12 24.1 100.10   -8 LegendNANA
15:00 Legend Double Dagger -4.4 -7.6 78 6 17 24.1 100.13   -10 Cloudy
16:00 Legend Double Dagger -5.0 -8.1 79 5 12 24.1 100.14   -10 LegendNANA
17:00 Legend Double Dagger -5.0 -8.3 78 5 9 24.1 100.14   -9 LegendNANA
18:00 Legend Double Dagger -5.6 -9.1 76 8 10 24.1 100.14   -10 Cloudy
19:00 Legend Double Dagger -6.8 -9.6 81 36 4 24.1 100.14   -9 LegendNANA
20:00 Legend Double Dagger -6.5 -9.6 79 4 11 24.1 100.13   -11 LegendNANA
21:00 Legend Double Dagger -5.9 -9.2 78 36 4 24.1 100.11   -8 Mainly Clear
22:00 Legend Double Dagger -6.8 -9.6 80 36 3 24.1 100.10   -8 LegendNANA
23:00 Legend Double Dagger -6.6 -9.7 79 32 7 24.1 100.09   -10 LegendNANA

Notes on Data Quality.

Legend

  • E = Estimated
  • M = Missing
  • NA = Not Available
  • ‡ = Partner data that is not subject to review by the National Climate Archives
Date modified: